This is the latest recevied weather packets stored in our database for station/object KF0FSA. If no packets are shown the sender has not sent any weather packets the latest 10 day(s).
| Time | Temp. | Humidity | Pressure | Rain* | Wind** | Luminosity | Snow |
|---|---|---|---|---|---|---|---|
| 1777422880 | 8.89° C | 64% | 964.6 hPa | 0 mm | - | 18 W/m² | - |
| 1777422580 | 8.89° C | 63% | 964.4 hPa | 0 mm | - | 19 W/m² | - |
| 1777422280 | 8.89° C | 62% | 964.4 hPa | 0 mm | - | 23 W/m² | - |
| 1777421980 | 9.44° C | 61% | 964.4 hPa | 0 mm | - | 29 W/m² | - |
| 1777421805 | 9.44° C | 61% | 964.4 hPa | 0 mm | - | 34 W/m² | - |
| 1777421380 | 9.44° C | 60% | 964.2 hPa | 0 mm | - | 36 W/m² | - |
| 1777421080 | 10° C | 59% | 964.1 hPa | 0 mm | - | 39 W/m² | - |
| 1777420779 | 10° C | 58% | 964.1 hPa | 0 mm | - | 41 W/m² | - |
| 1777420478 | 10° C | 58% | 964 hPa | 0 mm | - | 47 W/m² | - |
| 1777420179 | 10° C | 57% | 964 hPa | 0 mm | - | 47 W/m² | - |
| 1777419876 | 10° C | 57% | 963.9 hPa | 0 mm | - | 43 W/m² | - |
| 1777419575 | 10.56° C | 56% | 963.9 hPa | 0 mm | - | 46 W/m² | - |
| 1777419274 | 10.56° C | 56% | 963.8 hPa | 0 mm | - | 74 W/m² | - |
| 1777418975 | 10.56° C | 56% | 963.7 hPa | 0 mm | - | 94 W/m² | - |
| 1777418675 | 10.56° C | 55% | 963.7 hPa | 0 mm | - | 107 W/m² | - |
| 1777418500 | 10.56° C | 55% | 963.7 hPa | 0 mm | - | 118 W/m² | - |
| 1777418075 | 10.56° C | 56% | 963.7 hPa | 0 mm | - | 113 W/m² | - |
| 1777417775 | 10.56° C | 55% | 963.6 hPa | 0 mm | - | 143 W/m² | - |
| 1777417476 | 11.11° C | 54% | 963.5 hPa | 0 mm | - | 170 W/m² | - |
| 1777417176 | 11.11° C | 55% | 963.4 hPa | 0 mm | - | 151 W/m² | - |
| 1777416875 | 11.11° C | 54% | 963.3 hPa | 0 mm | - | 147 W/m² | - |
| 1777416576 | 11.11° C | 54% | 963.4 hPa | 0 mm | - | 174 W/m² | - |
| 1777416275 | 11.11° C | 53% | 963.3 hPa | 0 mm | - | 193 W/m² | - |
| 1777415976 | 11.11° C | 54% | 963.3 hPa | 0 mm | - | 207 W/m² | - |
| 1777415674 | 11.67° C | 53% | 963.3 hPa | 0 mm | - | 218 W/m² | - |
* Rain latest hour (hover to see other rain measurements)
** Current wind speed in m/s (hover to see current wind gust speed)